Вернуться в каталог

COSMOS 1823 DEB

АктивенLEO
NORAD 18754·DEBRIS·🇷🇺 Russia

Запущен Feb 20, 1987 с Plesetsk Cosmodrome

Loading…

Ближайшие Пролёты (ближайшие 24 часа)

TLE

СвежийSource: Space-Track

Эпоха: Sep 14, 2026, 09:39 UTC

1 18754U 87020AF  26257.40208516  .00000080  00000-0  52399-3 0  9999
2 18754  73.6297 257.1093 0071709 115.2679 314.8793 12.64656275786171

Отслеживайте COSMOS 1823 DEB в реальном времени с AllMySat

Download on the App Store